[[{"header":{"parameterUnit":"m.s-1","parameterCategory":1,"la1":30.2991,"la2":30.254,"lo1":-89.0895,"lo2":-89.0444,"dy":0.0017,"dx":0.0017,"nx":28,"ny":28,"refTime":"2024-06-19T03:00:00:Z","depth":0,"parameterNumber":2,"parameterNumberName":"U-component_of_WINDS"},"data":[0,0,0,0,0,0,0,0,0,0,0,0,0,0,0,0,0,0,0,0,0,0,0,0,0,0,0,0,0,0,0,0,0,0,0,0,0,0,0,0,0,0,0,0,0,0,0,0,0,0,0,0,0,0,0,0,0,0,-8.1998,-8.1998,0,-8.1961,-8.1961,-8.196,-8.1717,-8.1711,-8.1705,-8.1699,-8.1665,-8.1669,-8.1674,0,0,0,0,0,0,0,0,0,0,0,0,0,-8.1861,-8.1865,-8.1998,-8.1998,-8.1997,-8.1961,-8.1961,-8.196,-8.1718,-8.1711,-8.1703,-8.1697,-8.1663,-8.1668,-8.1674,0,0,0,0,0,0,0,0,0,0,0,0,0,-8.1883,-8.1867,-8.1998,-8.1872,-8.186,-8.1961,-8.1961,-8.196,-8.1719,-8.1711,-8.1702,-8.1693,-8.1661,-8.1668,-8.1675,-8.1895,0,0,-8.1696,-8.1699,0,0,0,0,0,0,0,0,-8.1882,-8.1888,-8.1891,-8.1881,-8.1868,-8.1834,-8.1899,-8.1938,-8.1722,-8.1773,-8.1699,-8.1689,-8.1728,-8.1729,-8.1742,-8.1893,-8.1892,-8.1696,-8.1701,-8.1703,-8.1705,0,0,0,0,0,0,0,-8.1881,-8.1888,-8.1984,-8.1891,-8.1877,-8.1818,-8.1811,-8.1906,-8.1801,-8.1768,-8.175,-8.1749,-8.172,-8.1736,-8.1739,-8.1891,-8.1696,-8.1702,-8.1707,-8.1709,-8.2219,-8.2228,0,0,0,0,0,0,-8.1896,-8.1889,-8.1985,-8.1982,-8.1853,-8.1828,-8.182,-8.1854,-8.1799,-8.1782,-8.1757,-8.1738,-8.1728,-8.1732,-8.1737,-8.1988,-8.1703,-8.171,-8.1714,-8.221,-8.2221,-8.2231,0,0,0,0,0,0,-8.1894,-8.1907,-8.1986,-8.1931,-8.1936,-8.1839,-8.188,-8.1858,-8.1873,-8.1791,-8.1771,-8.1791,-8.1722,-8.1727,-8.1857,-8.1983,-8.1713,-8.1719,-8.2199,-8.2213,-8.2226,-8.2494,0,0,0,0,0,0,-8.1892,-8.1908,-8.199,-8.1934,-8.194,-8.2107,-8.1888,-8.1864,-8.1885,-8.186,-8.1818,-8.1803,-8.1715,-8.1848,-8.1864,-8.1988,-8.1725,-8.2187,-8.2205,-8.2222,-8.2473,-8.2516,-8.2552,0,0,0,0,0,-8.1888,-8.2069,-8.1996,-8.2009,-8.2041,-8.2114,-8.2117,-8.2012,-8.1897,-8.1978,-8.1925,-8.1804,-8.1969,-8.1863,-8.1879,-8.2007,-8.2178,-8.22,-8.222,-8.2456,-8.2507,-8.2551,0,0,0,0,0,0,-8.2143,-8.2059,-8.1977,-8.2145,-8.2139,-8.2073,-8.2172,-8.2071,-8.2097,-8.2073,-8.1942,-8.1935,-8.2083,-8.2059,-8.1943,-8.2216,-8.2052,-8.2078,-8.2226,-8.2274,-8.2313,-8.2313,-8.173,0,0,0,0,0,-8.2219,-8.2285,-8.2208,-8.2364,-8.2365,-8.2271,-8.2299,-8.2218,-8.2206,-8.2202,-8.2159,-8.2153,-8.2202,-8.2238,-8.2279,-8.2471,-8.2456,-8.2567,-8.2606,-8.2639,-8.2661,-8.2757,-8.2804,-8.2301,-8.23,-8.23,0,0,-8.2377,-8.2339,-8.2388,-8.2415,-8.24,-8.2471,-8.227,-8.2354,-8.2405,-8.2215,-8.2332,-8.2302,-8.2286,-8.2447,-8.2515,-8.2431,-8.2797,-8.2666,-8.2692,-8.2696,-8.2783,-8.2831,-8.2874,-8.2315,-8.2312,-8.231,0,0,-8.2698,-8.2678,-8.2803,-8.2793,-8.2772,-8.2708,-8.2739,-8.2689,-8.266,-8.2776,-8.2635,-8.2695,-8.2785,-8.2778,-8.2787,-8.3108,-8.2996,-8.3125,-8.3328,-8.3424,-8.3463,-8.3497,-8.3608,-8.365,-8.3149,-8.3149,-8.315,0,-8.2896,-8.2996,-8.2881,-8.2974,-8.2988,-8.282,-8.2946,-8.2942,-8.2938,-8.2952,-8.2858,-8.2964,-8.2943,-8.3097,-8.3176,-8.319,-8.322,-8.3127,-8.3467,-8.35,-8.353,-8.3634,-8.3677,-8.3165,-8.3163,-8.3161,-8.316,0,-8.3238,-8.3311,-8.3415,-8.3412,-8.344,-8.3549,-8.3451,-8.3493,-8.3411,-8.3357,-8.3477,-8.3446,-8.3476,-8.3508,-8.343,-8.3653,-8.36,-8.349,-8.3321,-8.3596,-8.3691,-8.373,-8.3187,-8.3181,-8.3177,-8.3173,0,0,-8.3717,-8.3649,-8.3689,-8.3684,-8.365,-8.3704,-8.3807,-8.3835,-8.3872,-8.3876,-8.3956,-8.4037,-8.3933,-8.3943,-8.3863,-8.3948,-8.4199,-8.3825,-8.3823,-8.3892,-8.4439,-8.4519,-8.4567,-8.4128,-8.4135,-8.4141,-8.4438,0,-8.4021,-8.4188,-8.4088,-8.4271,-8.4334,-8.4176,-8.4265,-8.4254,-8.4208,-8.4256,-8.4205,-8.4261,-8.4122,-8.4127,-8.4204,-8.4153,-8.4307,-8.4131,-8.4199,-8.4203,-8.4203,-8.4617,-8.4702,-8.4984,-8.4475,-8.4482,-8.4486,0,-8.4397,-8.4415,-8.4604,-8.4555,-8.4578,-8.4659,-8.4676,-8.4725,-8.471,-8.467,-8.4682,-8.4581,-8.4678,-8.4516,-8.4647,-8.4529,-8.4552,-8.4532,-8.454,-8.4538,-8.4358,-8.4622,-8.5072,-8.5113,-8.4545,-8.454,-8.4536,0,-8.4721,-8.4793,-8.4913,-8.4916,-8.4864,-8.4924,-8.4905,-8.4881,-8.4904,-8.4921,-8.4934,-8.4964,-8.4979,-8.5004,-8.4914,-8.4805,-8.5056,-8.4887,-8.5023,-8.5026,-8.5079,-8.5076,-8.5534,-8.5104,-8.5103,-8.5102,-8.5101,0,-8.5068,-8.5189,-8.5057,-8.5131,-8.5262,-8.5147,-8.528,-8.5244,-8.5225,-8.5289,-8.5157,-8.5221,-8.51,-8.5152,-8.5083,-8.52,-8.5209,-8.5179,-8.5158,-8.5187,-8.5191,-8.5197,-8.5173,-8.5113,-8.5111,-8.5109,-8.5107,0,-8.545,-8.5367,-8.5487,-8.5428,-8.5416,-8.5515,-8.5464,-8.553,-8.5475,-8.5559,-8.5572,-8.5486,-8.554,-8.5454,-8.55,-8.5453,-8.5614,-8.5566,-8.5618,-8.5602,-8.5741,-8.5728,-8.6216,-8.6273,-8.5811,-8.5815,-8.5819,0,-8.5674,-8.5762,-8.5712,-8.5745,-8.5733,-8.5789,-8.5811,-8.5703,-8.5732,-8.5721,-8.5789,-8.5832,-8.5859,-8.5954,-8.5896,-8.593,-8.5878,-8.6048,-8.5882,-8.5909,-8.5875,-8.5869,-8.5876,-8.608,-8.6085,-8.609,-8.6094,0,-8.6079,-8.6033,-8.607,-8.6093,-8.6123,-8.6137,-8.614,-8.6176,-8.6061,-8.6101,-8.6153,-8.6176,-8.6221,-8.6264,-8.6284,-8.6265,-8.6161,-8.6147,-8.6179,-8.6207,-8.6232,-8.6216,-8.5705,-8.6135,-8.6131,-8.6128,-8.6125,-8.6124,-8.6384,-8.6454,-8.6429,-8.6474,-8.6466,-8.6472,-8.653,-8.6483,-8.6524,-8.655,-8.6486,-8.6554,-8.6537,-8.6551,-8.6545,-8.6597,-8.6522,-8.6571,-8.6582,-8.6594,-8.6614,-8.6229,-8.6601,-8.6599,-8.6598,-8.6597,-8.6596,0,-8.6778,-8.6754,-8.6797,-8.6805,-8.6841,-8.674,-8.6739,-8.6776,-8.6837,-8.6829,-8.6859,-8.6919,-8.6961,-8.6908,-8.694,-8.6992,-8.6945,-8.7004,-8.6996,-8.6993,-8.6681,-8.6647,-8.7041,-8.7041,-8.7041,-8.7041,-8.7041,-8.7041,-8.6987,-8.7098,-8.7051,-8.7157,-8.7133,-8.7196,-8.7204,-8.721,-8.7202,-8.7275,-8.7308,-8.7273,-8.7247,-8.7276,-8.731,-8.7294,-8.731,-8.7385,-8.7352,-8.7059,-8.7016,-8.6974,-8.6941,-8.7391,-8.7391,-8.7658,-8.7661,-8.7663]},{"header":{"parameterUnit":"m.s-1","parameterCategory":1,"la1":30.2991,"la2":30.254,"lo1":-89.0895,"lo2":-89.0444,"dy":0.0017,"dx":0.0017,"nx":28,"ny":28,"refTime":"2024-06-19T03:00:00:Z","depth":0,"parameterNumber":3,"parameterNumberName":"V-component_of_WINDS"},"data":[0,0,0,0,0,0,0,0,0,0,0,0,0,0,0,0,0,0,0,0,0,0,0,0,0,0,0,0,0,0,0,0,0,0,0,0,0,0,0,0,0,0,0,0,0,0,0,0,0,0,0,0,0,0,0,0,0,0,0.2068,0.2068,0,0.2066,0.2066,0.2066,0.2049,0.2048,0.2048,0.2047,0.2044,0.2045,0.2045,0,0,0,0,0,0,0,0,0,0,0,0,0,0.2058,0.2058,0.2068,0.2068,0.2068,0.2066,0.2066,0.2066,0.2049,0.2048,0.2048,0.2047,0.2044,0.2045,0.2045,0,0,0,0,0,0,0,0,0,0,0,0,0,0.206,0.2058,0.2068,0.2059,0.2058,0.2066,0.2066,0.2066,0.2049,0.2048,0.2047,0.2047,0.2044,0.2044,0.2045,0.2061,0,0,0.2046,0.2047,0,0,0,0,0,0,0,0,0.206,0.206,0.2061,0.206,0.2059,0.2057,0.2062,0.2065,0.2049,0.2052,0.2047,0.2047,0.2049,0.2049,0.205,0.2061,0.2061,0.2046,0.2047,0.2047,0.2047,0,0,0,0,0,0,0,0.206,0.206,0.2068,0.2061,0.206,0.2056,0.2055,0.2062,0.2054,0.2052,0.2051,0.2051,0.2048,0.205,0.205,0.2061,0.2046,0.2047,0.2047,0.2047,0.2088,0.2089,0,0,0,0,0,0,0.2061,0.206,0.2068,0.2067,0.2058,0.2057,0.2056,0.2058,0.2054,0.2053,0.2051,0.205,0.2049,0.2049,0.205,0.207,0.2047,0.2047,0.2048,0.2087,0.2088,0.2089,0,0,0,0,0,0,0.2061,0.2062,0.2068,0.2064,0.2064,0.2057,0.206,0.2059,0.206,0.2054,0.2052,0.2054,0.2049,0.2049,0.2059,0.207,0.2048,0.2048,0.2086,0.2088,0.2089,0.211,0,0,0,0,0,0,0.2061,0.2062,0.2067,0.2064,0.2064,0.2077,0.2061,0.2059,0.2061,0.2059,0.2056,0.2055,0.2048,0.2059,0.206,0.207,0.2048,0.2085,0.2087,0.2088,0.2109,0.2112,0.2115,0,0,0,0,0,0.206,0.2073,0.2068,0.2069,0.2071,0.2077,0.2078,0.207,0.2062,0.2068,0.2064,0.2055,0.2069,0.206,0.2061,0.2072,0.2085,0.2086,0.2088,0.2107,0.2111,0.2115,0,0,0,0,0,0,0.2076,0.2072,0.2066,0.2078,0.2078,0.2074,0.2081,0.2075,0.2077,0.2075,0.2066,0.2065,0.2077,0.2075,0.2066,0.2089,0.2075,0.2077,0.2089,0.2093,0.2096,0.2097,0.2049,0,0,0,0,0,0.2081,0.2087,0.2082,0.2093,0.2094,0.2088,0.209,0.2085,0.2085,0.2085,0.2082,0.2082,0.2087,0.209,0.2093,0.2109,0.2109,0.2117,0.212,0.2123,0.2125,0.2135,0.2139,0.2095,0.2095,0.2095,0,0,0.2091,0.209,0.2093,0.2096,0.2096,0.2103,0.2088,0.2095,0.21,0.2085,0.2095,0.2094,0.2094,0.2107,0.2113,0.2106,0.2137,0.2125,0.2127,0.2128,0.2137,0.2141,0.2145,0.2096,0.2096,0.2096,0,0,0.2113,0.2112,0.2122,0.2123,0.2123,0.2119,0.2122,0.212,0.2119,0.2129,0.2119,0.2125,0.2132,0.2134,0.2135,0.2161,0.2153,0.2163,0.218,0.219,0.2193,0.2196,0.2207,0.2211,0.2165,0.2165,0.2165,0,0.2125,0.2135,0.2128,0.2136,0.2139,0.2128,0.2138,0.2139,0.2141,0.2143,0.2135,0.2147,0.2146,0.216,0.2167,0.2168,0.2172,0.2163,0.2193,0.2196,0.2199,0.221,0.2214,0.2166,0.2166,0.2166,0.2166,0,0.2151,0.2158,0.2166,0.2169,0.2173,0.2182,0.2177,0.2182,0.2177,0.2175,0.2187,0.2185,0.219,0.2193,0.2187,0.2208,0.2204,0.2195,0.2181,0.2205,0.2215,0.2218,0.2168,0.2167,0.2167,0.2167,0,0,0.2181,0.2182,0.2186,0.2188,0.2189,0.2195,0.2205,0.221,0.2215,0.2217,0.2226,0.2235,0.2227,0.2229,0.2224,0.2233,0.2257,0.2223,0.2223,0.2231,0.2281,0.2289,0.2293,0.2251,0.2252,0.2253,0.2282,0,0.2203,0.222,0.2216,0.2233,0.2241,0.2232,0.2241,0.2243,0.2242,0.2249,0.2247,0.2254,0.2243,0.2245,0.2253,0.2252,0.2267,0.225,0.2261,0.2261,0.2262,0.2298,0.2305,0.2332,0.2285,0.2286,0.2286,0,0.2231,0.2236,0.2255,0.2257,0.226,0.2269,0.2275,0.2281,0.2284,0.2283,0.2287,0.2281,0.2292,0.2279,0.2295,0.2284,0.2288,0.2288,0.2289,0.229,0.2275,0.2301,0.2341,0.2345,0.2292,0.2292,0.2291,0,0.2253,0.2264,0.2278,0.228,0.2283,0.2289,0.2291,0.2293,0.2298,0.2304,0.2307,0.2313,0.2317,0.2323,0.2319,0.2309,0.2337,0.2322,0.2337,0.2337,0.2343,0.2343,0.2385,0.2345,0.2344,0.2344,0.2344,0,0.2279,0.2291,0.2288,0.2296,0.2311,0.2306,0.232,0.2321,0.2324,0.2333,0.2325,0.2334,0.2328,0.2337,0.2334,0.2349,0.235,0.235,0.235,0.2352,0.2352,0.2355,0.2353,0.2345,0.2345,0.2345,0.2345,0,0.2305,0.2304,0.2318,0.2321,0.2322,0.2332,0.2335,0.2343,0.2343,0.2354,0.2357,0.2356,0.2366,0.2363,0.2373,0.2372,0.2391,0.2387,0.239,0.239,0.2405,0.2404,0.2451,0.2458,0.2412,0.2413,0.2413,0,0.2322,0.2332,0.2336,0.2342,0.2345,0.2354,0.2359,0.2356,0.2362,0.2368,0.2376,0.2386,0.2393,0.241,0.241,0.2419,0.2416,0.2432,0.2417,0.242,0.2418,0.2418,0.242,0.2435,0.2436,0.2436,0.2436,0,0.2353,0.2352,0.236,0.2369,0.2376,0.2383,0.2389,0.2394,0.2391,0.2399,0.241,0.2416,0.2428,0.2438,0.2447,0.2449,0.2443,0.2441,0.2445,0.2448,0.245,0.245,0.24,0.244,0.244,0.2439,0.2439,0.2439,0.2376,0.2385,0.239,0.2401,0.2405,0.2412,0.242,0.2422,0.2431,0.2441,0.2439,0.2452,0.2457,0.2468,0.2472,0.2482,0.2476,0.2482,0.2483,0.2485,0.2488,0.2448,0.2484,0.2484,0.2484,0.2483,0.2483,0,0.2407,0.2411,0.2421,0.243,0.2439,0.2433,0.244,0.2448,0.246,0.2466,0.2474,0.2488,0.2499,0.2501,0.2512,0.252,0.2518,0.2523,0.2522,0.2524,0.2491,0.2488,0.2525,0.2525,0.2525,0.2525,0.2525,0.2525,0.2425,0.2441,0.2442,0.2461,0.2464,0.2477,0.2482,0.2489,0.2494,0.251,0.2519,0.2521,0.2526,0.2538,0.2548,0.2548,0.2553,0.256,0.2559,0.2529,0.2525,0.2521,0.2518,0.2561,0.2561,0.2591,0.2591,0.2591]}]]